Flag for Canada Weather past 2 weeks in Thompson, Manitoba, Canada

Now
54 °F

Sprinkles. Overcast.


Feels Like: 51 °F
Forecast: N/A
Wind: 9 mph from Southeast

Location: Thompson

Current Time: Sep 30, 2014 at 5:03:16 PM

Latest Report: Sep 30, 2014 at 4:00 PM


Visibility: 12 mi

Pressure: 29.75 "Hg

Humidity: 82%

Dew point: 48 °F

Location of ThompsonLocation

Historic Weather in Thompson — Graph

°F

Thompson temperature yesterday

Maximum temperature yesterday: 55 °F (at 4:00 PM)
Minimum temperature yesterday: 30 °F (at 12:00 AM)
Average temperature yesterday: 43 °F

Past Weeks' High & Low Weather Summary

 TemperatureHumidityPressure
High81 °F (Sep 23, 6:00 PM)100% (Sep 15, 4:00 PM)30.58 "Hg (Sep 15, 4:00 PM)
Low18 °F (Sep 17, 5:00 AM)31% (Sep 24, 3:00 PM)29.44 "Hg (Sep 19, 2:00 AM)
Average46 °F84%29.97 "Hg
* Reported Sep 15 4:00 PM — Sep 30 4:00 PM, Thompson, Weather by CustomWeather, © 2014

Note: Actual official high and low records may vary slightly from our data, if they occured in-between our weather recording intervals... More about our weather records

Advertising

Thompson weather history for previous 24 hours

 ConditionsComfort  
Time TempWeatherWind HumidityBarometerVisibility
4:00 PM
Sep 30
54 °FSprinkles. Overcast.9 mph82%29.75 "Hg12 mi
3:00 PM52 °FOvercast.7 mph82%29.77 "Hg15 mi
2:00 PM50 °FOvercast.10 mph82%29.81 "Hg15 mi
1:00 PM50 °FMore clouds than sun.9 mph76%29.82 "Hg15 mi
12:00 PM48 °FPartly sunny.10 mph82%29.84 "Hg15 mi
10:00 AM45 °FOvercast.6 mph100%29.88 "Hg15 mi
9:00 AM41 °FPartly sunny.6 mph100%29.90 "Hg15 mi
8:00 AM36 °FPassing clouds.6 mph100%29.91 "Hg15 mi
7:00 AM36 °FPassing clouds.5 mph100%29.92 "Hg15 mi
6:00 AM36 °FClear.5 mph100%29.93 "Hg15 mi
5:00 AM37 °FClear.6 mph100%29.95 "Hg15 mi
4:00 AM36 °FClear.2 mph100%29.95 "Hg15 mi
3:00 AM32 °FClear.2 mph100%29.95 "Hg15 mi
2:00 AM32 °FClear.No wind100%29.96 "Hg15 mi
1:00 AM39 °FClear.5 mph100%29.96 "Hg15 mi
12:00 AM39 °FClear.5 mph100%29.96 "Hg15 mi
11:00 PM
Sep 29
43 °FPassing clouds.7 mph93%29.97 "Hg15 mi
10:00 PM43 °FClear.7 mph93%29.98 "Hg15 mi
9:00 PM45 °FPassing clouds.7 mph81%29.99 "Hg15 mi
8:00 PM46 °FScattered clouds.6 mph76%30.00 "Hg15 mi
7:00 PM50 °FPartly sunny.8 mph67%30.00 "Hg15 mi
6:00 PM52 °FPartly sunny.13 mph62%30.02 "Hg15 mi
5:00 PM52 °FPartly sunny.9 mph58%30.04 "Hg15 mi
Weather by CustomWeather, © 2014

See weather overviewHow to use our weather pages